DELTA 1 DEB, 9979

Orbit data source: Space-Track

DELTA 1 DEB, 9979 is space debris in LEO originally from a launch on Tue, 06 Nov 1973 UTC launched from the Air Force Western Test Range (AFWTR). Debris objects in space refer to the collection of defunct objects orbiting the Earth. Examples of debris include non-operational satellites, rocket bodies, and fragments generated from explosions, collisions, or faulty payload assembly.

Loading next visibility...
Identifier
9979, 1973-086GJ
Orbit
LEO
Country
Flag of USUS
Related business
Manufacturer
Unknown
Mission
Spacecraft
Bus & Motor
Unknown
Mass
Unknown
Launch date (UTC)
1973-11-06 (52 years ago)
Launch vehicle
Unknown
Launch site
Air Force Western Test Range (AFWTR)
Object type
Payload
Rocket body
Debris
Shape & HBR
Unknown shape, 0.1 m
Radar Cross Section
Small (<0.1 m²)

Expand to show TLE details & history
Last TLE update: 12 hours ago

TLE from 12 hours ago
0 DELTA 1 DEB
1  9979U 73086GJ  26034.31471623 -.00000010  00000-0  35152-3 0  9991
2  9979 101.9380 336.9769 0589498 186.8856 332.1179 11.50736941504514
Epoch: 2026-02-03T07:33Z
TLE epoch observation values (Epoch: 2026-02-03T07:33:11.482Z)
Latitude
23.83739°
Longitude
-84.48487°
Altitude
1,486.66 km
Speed
7.303 km/s
True Right ascension
10h 49m 14s
True Declination
23° 43' 20"
Sunlit
Object was in full shadow at epoch
Visualization orbit readout
Latitude
Unknown
Longitude
Unknown
Altitude
Unknown
Speed
Unknown
Apparent Right ascension
Unknown
Apparent Declination
Unknown
Sunlit
N/A
Visualization observer readout
Local Sidereal Time
21:09:37
Azimuth
Unknown
Elevation
Unknown
Doppler factor
Unknown
Orbital elements
Apogee altitude
2,395.334 km
Perigee altitude
1,418.528 km
Semi-major axis
8,285.068 km
Eccentricity
0.05895
Inclination
101.938°
RAAN
336.9769°
Arg. of periapsis
186.8856°
True anomaly
328.74137°
Mean anomaly
332.1179°
Eccentric anomaly
330.45225°
Mean motion
2.87805 °/min
Orbital period
125.08 mins
BSTAR
0.00035152
Loading maneuver chart data...
Computing Atmospheric mass density...
Loading historical data...
Loading historical data...
Loading historical data...
Loading historical data...
Loading historical data...
Loading historical data...
Loading historical data...

Documentation

Showing up to 5 results
|